Temp_Advection
nan nan nan nan nan nan nan nan nan nan nan nan nan nan nan nan nan nan nan nan nan nan nan nan nan nan nan nan nan nan nan nan nan nan nan nan nan nan nan nan nan nan nan
nan 1 0 -0 0 0 0 0 0 0 -0 -0 0 0 -0 -0 0 0 0 0 0 0 0 0 -0 -0 -0 -0 -0 -0 -0 -0 -1 -1 -0 -0 -0 0 -0 -0 -0 -0 nan
nan 1 0 0 0 0 0 0 0 0 -0 -0 0 0 -0 -0 0 0 0 0 0 0 0 0 -0 -0 -0 -0 -0 -0 -0 -0 -0 -0 -0 -0 -0 -0 -0 -0 -0 -0 nan
nan 0 0 0 0 0 0 0 0 0 0 -0 0 0 -0 -0 -0 0 0 0 0 0 0 0 0 -0 -0 -0 -0 -0 -0 -0 0 0 0 -0 0 -0 -0 -0 -0 0 nan
nan 0 0 0 0 0 0 0 -0 0 0 0 0 0 -0 -0 -0 -0 -0 -0 -0 0 0 0 0 -0 -0 -0 -0 -0 -0 -0 0 0 0 0 0 0 -0 -1 -0 -0 nan
nan 0 0 0 0 0 0 -0 0 0 -0 0 0 0 0 -0 -0 -0 -0 0 0 0 0 0 0 0 -0 -0 -0 -0 -0 -0 -0 -0 0 0 0 0 0 -0 -1 -1 nan
nan 0 0 -0 0 0 0 0 0 0 0 0 0 0 -0 -0 -0 -0 -0 0 0 0 0 0 0 -0 -0 -0 -0 0 -0 0 -0 -0 0 0 0 0 0 0 -0 -1 nan
nan 0 0 0 0 0 0 0 0 0 0 0 0 0 0 0 0 -0 -0 0 0 0 0 0 0 0 0 -0 -0 -0 -0 0 0 0 0 0 0 0 0 0 0 -0 nan
nan 0 0 0 0 0 0 0 0 0 0 0 0 0 0 0 0 0 0 0 0 0 0 0 0 0 0 0 0 0 0 -0 0 0 0 0 0 0 0 0 0 0 nan
nan -0 -0 0 0 0 0 0 0 0 0 0 0 0 0 0 0 0 0 -0 0 0 0 0 0 0 0 0 -0 0 0 0 0 0 0 0 0 0 0 0 0 0 nan
nan 0 0 0 0 0 0 0 0 0 0 0 0 0 0 0 0 0 0 -0 -0 -0 0 0 0 0 0 0 0 0 0 0 0 0 -0 0 0 0 0 0 0 0 nan
nan -0 -0 0 0 0 0 0 0 0 0 1 0 0 0 0 0 0 0 0 -0 -0 -0 -0 0 0 0 0 0 0 0 0 0 0 0 0 0 0 0 0 0 0 nan
nan -0 -0 -0 -0 0 0 0 0 1 1 1 0 0 0 0 0 0 0 0 0 -0 -0 -0 -0 0 -0 0 0 0 0 0 0 0 0 -0 -0 0 0 0 0 0 nan
nan -0 -0 -0 -0 -0 -0 0 0 1 1 1 0 0 0 0 0 0 0 0 0 -0 -0 -0 -0 0 0 0 0 0 -0 0 0 0 -0 0 0 0 0 0 0 0 nan
nan -1 -1 -0 -0 -0 0 -0 -0 1 1 1 0 0 0 1 0 0 0 0 0 0 -0 -0 0 0 0 0 0 0 -0 0 0 0 -0 -0 -0 -0 -0 0 0 0 nan
nan -1 -1 -1 -1 -1 -0 0 0 0 1 0 0 0 1 0 0 0 0 0 1 0 0 -0 0 0 0 0 0 -0 -0 -0 -0 0 0 -0 -0 -0 -0 -0 0 0 nan
nan -1 -1 -1 -1 -1 -1 -0 -0 0 0 0 0 1 0 0 0 0 0 0 1 0 0 0 0 0 0 0 0 0 -0 -0 -0 -0 0 0 0 -0 -0 0 -0 -0 nan
nan -1 -1 -1 -1 -1 -1 -1 -0 0 0 0 0 0 0 0 -0 0 0 0 0 0 0 0 0 0 0 0 0 0 0 -0 -0 0 -0 -0 -0 0 0 -0 -0 -0 nan
nan -1 -1 -2 -1 -1 -1 -0 -0 -0 -0 -0 -0 -0 -0 0 0 0 -0 -0 -0 -0 0 0 0 0 0 0 0 0 0 -0 -0 0 -0 -0 -0 0 0 -0 -0 -0 nan
nan -2 -2 -2 -2 -1 -1 -0 -0 -0 -0 -0 -0 -0 -1 -1 0 1 0 0 0 -1 -1 -0 0 0 0 -0 0 0 -0 -0 -0 0 0 0 -0 0 0 0 -0 -1 nan
nan -1 -1 -1 -2 -2 -2 -1 -1 -1 -0 -1 -1 -1 -1 -1 -0 -0 0 -0 -0 -0 -1 -1 -1 -0 -0 -0 0 0 -0 -0 -0 -0 0 0 0 0 0 0 -0 -0 nan
nan -1 -1 -1 -1 -1 -1 -1 -1 -1 -1 -1 -0 -0 -0 -1 -0 -0 -0 -0 -0 0 -0 -0 -0 -1 -1 -0 -0 0 0 0 -0 -0 0 0 0 0 0 0 -0 0 nan
nan -0 -0 -0 0 -0 -0 -0 -0 -0 -1 -1 -1 -0 0 0 -0 -0 -0 -0 -0 -0 -0 -0 -0 -0 -0 -0 0 -0 -0 0 0 0 0 -0 0 -0 -0 -0 0 0 nan
nan -0 -0 -0 -0 0 0 0 0 0 0 -0 -0 -0 -0 0 0 0 0 -0 -1 -0 -0 -0 -0 -1 -1 -0 -0 -0 0 0 0 0 0 0 0 -0 -0 -0 -0 1 nan
nan -0 -0 -0 -1 -0 -0 0 0 0 0 -0 -0 -0 -0 0 0 0 0 -0 -0 0 -0 0 -0 -0 -1 -0 0 -0 -0 -0 0 0 -0 -0 0 0 1 0 -0 -0 nan
nan nan nan nan nan nan nan nan nan nan nan nan nan nan nan nan nan nan nan nan nan nan nan nan nan nan nan nan nan nan nan nan nan nan nan nan nan nan nan nan nan nan nan
Wind_Speed
21 20 17 14 12 13 11 10 9 8 6 7 10 12 12 13 14 16 16 16 15 14 14 14 15 15 15 16 17 17 16 15 15 9 3 2 5 4 5 4 4 3 3
26 25 22 18 14 11 11 11 9 8 8 9 10 12 13 13 13 13 14 15 15 15 14 12 13 12 13 14 15 15 15 14 14 13 5 3 1 0 1 1 2 4 4
27 28 26 21 17 14 12 11 10 9 10 9 10 12 12 12 12 12 12 13 13 13 13 11 11 11 12 12 13 13 13 12 10 10 7 3 3 5 3 4 4 5 5
20 26 26 24 19 14 13 12 10 10 9 8 9 10 10 12 14 15 15 13 12 11 11 11 10 10 10 11 12 11 11 10 9 6 7 5 5 4 5 5 5 6 8
14 24 26 22 17 15 13 12 12 10 9 9 9 11 11 13 13 14 13 13 12 12 10 10 10 10 10 11 11 11 11 10 9 8 6 4 2 4 5 9 8 9 10
8 14 21 20 18 16 15 14 13 11 9 9 10 10 11 13 14 14 14 13 12 11 10 9 10 11 11 12 11 11 11 10 9 8 7 6 3 3 5 9 14 14 9
9 14 21 23 22 19 16 15 14 13 11 10 10 10 11 13 14 14 14 13 12 10 10 9 10 10 11 11 11 11 11 10 9 8 7 6 6 7 8 10 12 14 14
9 16 20 22 21 19 18 17 16 15 13 12 11 11 12 12 12 12 13 13 13 13 12 11 11 11 12 12 12 12 11 11 10 9 8 7 7 8 9 10 11 13 10
14 16 18 21 21 20 19 18 18 17 16 13 12 12 13 12 11 12 13 14 14 14 13 13 13 13 13 13 13 12 12 11 11 10 10 9 8 9 9 10 10 10 7
12 16 22 23 21 21 20 21 21 21 19 18 15 15 14 13 11 12 12 13 14 14 14 14 14 13 13 13 13 13 13 13 13 12 12 11 11 11 11 11 12 12 12
15 14 16 22 22 22 22 23 24 23 22 20 17 17 16 14 14 14 14 14 15 15 15 15 15 15 15 15 14 14 14 14 13 13 14 13 14 13 13 13 14 14 15
22 19 18 18 23 26 25 26 25 24 23 22 20 20 18 17 16 17 17 17 16 16 17 17 17 17 17 17 16 16 16 16 16 15 16 15 16 16 15 16 15 16 16
22 19 18 19 22 25 27 28 29 27 23 23 23 21 21 19 19 20 20 19 18 17 18 18 18 18 18 18 17 17 17 16 16 16 16 15 15 16 16 16 17 17 17
19 18 18 17 19 24 26 26 27 28 25 24 25 24 23 20 21 22 22 22 21 20 19 19 19 19 19 18 18 17 16 16 15 15 15 15 15 15 15 15 16 16 17
28 22 19 20 19 18 21 24 24 28 28 27 27 27 23 21 23 25 25 25 26 24 22 21 19 20 20 19 18 18 17 17 17 16 16 15 15 15 16 16 15 16 16
25 24 23 24 25 21 16 14 21 23 27 29 29 27 24 22 24 26 27 27 28 27 25 23 21 20 19 19 19 20 20 20 20 20 19 18 17 17 17 17 17 17 17
27 26 23 21 23 23 20 19 19 18 20 24 24 22 22 24 25 27 28 29 28 27 27 25 23 21 20 19 19 19 21 21 21 20 20 19 18 18 18 17 17 18 18
23 24 24 23 21 20 21 21 19 18 18 17 17 19 22 25 26 27 28 28 27 28 28 26 24 22 20 19 21 22 22 22 22 22 21 20 18 17 17 18 18 18 19
20 20 21 21 20 20 18 15 13 12 13 15 19 22 24 25 24 24 25 25 28 30 28 25 24 23 21 21 22 21 21 20 20 20 19 19 20 19 19 21 23 23 23
18 19 18 18 18 16 15 14 14 15 17 19 19 20 23 28 32 32 31 29 26 27 26 25 24 22 23 20 20 18 19 21 22 22 22 21 22 22 21 23 23 26 25
17 16 16 18 19 20 20 20 19 19 17 18 19 22 25 25 21 21 18 15 16 18 20 20 21 21 22 20 19 19 21 23 23 24 24 23 22 22 23 24 27 29 28
18 19 19 20 21 22 22 22 22 24 27 28 26 21 17 19 20 21 20 19 19 20 21 21 21 23 23 21 20 20 20 21 23 25 25 24 24 26 26 26 28 29 28
18 19 20 21 20 21 22 23 22 22 22 22 24 25 25 20 16 19 19 19 18 19 21 22 24 25 23 22 23 23 23 23 25 26 26 26 26 28 29 29 28 27 28
20 20 22 23 23 21 22 22 23 23 25 26 25 25 24 24 25 26 27 29 30 30 30 29 29 31 30 28 26 26 27 26 26 27 27 27 27 28 28 27 27 29 30
22 22 23 25 25 25 25 24 24 24 25 25 26 26 27 29 29 28 27 26 26 26 28 29 30 30 32 32 27 26 28 28 26 25 27 27 28 28 27 28 30 29 28
24 24 25 27 27 27 27 27 25 25 26 28 29 29 29 30 31 30 30 28 28 27 26 27 31 36 34 32 31 27 27 28 27 24 29 31 30 28 26 25 23 20 19
Wind_Direction
240 228 221 223 230 237 243 251 248 250 256 281 296 296 297 300 301 303 303 302 299 297 299 304 307 312 317 322 328 333 337 342 349 5 35 54 53 54 63 77 58 59 46
230 221 215 218 231 233 240 240 241 244 262 284 298 304 313 316 316 315 312 307 303 301 299 299 302 310 316 322 326 333 341 353 356 6 357 352 338 126 50 3 355 20 27
226 216 212 217 222 231 238 237 241 249 270 285 303 309 319 324 324 322 317 309 304 298 297 300 302 309 316 321 325 333 340 350 0 1 8 351 329 338 273 293 319 329 337
224 222 216 215 220 229 232 237 242 256 269 287 302 307 318 324 326 328 328 325 317 307 297 292 294 305 313 318 320 327 334 341 348 356 355 338 309 334 314 282 281 291 298
245 228 219 220 223 229 238 236 243 257 269 289 305 308 318 323 326 328 329 328 322 315 305 294 290 299 307 311 313 320 325 329 333 335 339 341 338 273 300 303 305 291 303
241 216 215 214 222 230 232 238 247 250 259 282 295 300 312 320 326 328 330 329 325 317 309 300 293 295 302 308 309 312 315 319 322 324 326 322 318 286 289 301 317 329 343
209 201 204 215 223 232 237 243 249 251 259 279 289 296 307 316 321 325 328 329 329 324 316 308 301 297 297 299 298 300 303 306 308 307 309 311 304 299 299 304 315 322 334
218 217 220 226 235 240 247 248 252 253 258 271 283 289 299 309 316 324 329 330 329 328 323 315 305 299 299 297 294 293 293 294 296 295 291 290 293 293 292 296 307 318 321
255 242 234 237 243 249 252 259 259 257 258 269 278 281 285 294 306 319 328 329 324 320 316 314 310 303 298 294 290 288 286 284 284 284 284 287 285 284 286 289 292 299 309
285 264 250 245 247 249 255 255 253 255 253 258 270 271 272 281 295 308 316 323 323 318 313 309 306 302 298 294 291 291 288 288 286 283 281 282 282 281 279 280 280 278 278
330 295 271 251 251 255 257 258 258 262 259 261 270 267 265 274 285 296 301 309 317 317 312 305 301 299 295 290 287 283 279 277 275 273 273 272 272 272 272 273 273 275 275
323 309 291 272 259 258 259 259 259 262 263 261 265 263 258 267 277 286 291 296 304 310 309 305 300 295 292 289 287 284 281 279 277 274 273 274 274 274 272 272 272 271 272
336 328 306 296 282 273 268 266 260 259 265 258 264 263 254 263 275 282 286 288 293 298 301 300 298 295 292 288 284 282 279 278 278 277 276 277 273 275 276 274 273 274 273
352 351 347 331 309 285 276 268 261 260 261 258 263 263 255 264 276 281 284 286 286 288 291 293 294 293 289 287 285 283 281 280 279 279 279 279 280 280 278 276 277 277 276
15 6 353 345 332 304 280 267 267 266 259 256 262 262 257 264 274 282 287 287 284 282 282 284 288 288 286 283 280 280 281 282 281 281 280 280 281 281 280 278 277 276 278
6 2 360 355 356 344 330 294 279 279 264 261 266 264 259 268 279 284 287 286 283 280 277 278 281 282 280 275 277 279 279 279 279 281 278 278 278 278 278 277 276 276 277
359 353 350 345 340 336 331 318 304 288 270 264 263 257 264 274 280 285 284 284 284 281 275 275 278 281 278 274 273 277 279 279 278 278 279 279 279 278 276 274 273 274 276
349 343 334 333 334 330 321 311 302 290 280 272 265 268 275 282 287 286 284 286 287 281 274 271 272 273 270 267 275 278 274 271 271 273 274 276 274 272 273 272 270 270 270
342 338 331 326 322 320 320 318 310 293 282 278 278 281 285 287 288 287 286 288 288 281 273 269 268 268 265 270 277 275 276 275 274 276 277 277 278 280 279 279 280 278 276
336 334 329 322 308 306 309 301 293 291 291 290 289 289 289 288 287 283 279 275 276 282 276 269 267 264 270 276 272 270 270 274 276 275 274 272 275 277 275 277 279 279 281
356 355 352 349 340 331 326 322 316 310 311 311 304 298 296 296 296 287 282 288 282 275 276 283 279 276 274 272 266 266 269 271 273 272 271 271 274 278 276 275 277 280 284
11 13 9 7 1 357 350 343 334 326 320 314 307 301 312 325 316 311 305 296 289 287 293 291 288 283 280 277 275 273 270 273 274 273 275 275 271 273 277 278 279 281 280
357 358 354 350 349 347 346 346 348 348 348 346 337 325 315 303 309 315 313 312 310 306 297 292 290 289 288 282 279 278 274 272 274 275 277 278 277 278 281 284 284 282 278
347 344 340 337 336 336 333 331 328 326 321 317 314 315 312 308 302 294 294 296 294 297 302 301 300 300 297 292 289 284 279 275 275 277 279 279 281 284 286 283 280 278 279
333 330 329 327 325 325 322 321 320 318 313 311 309 305 302 301 302 297 292 292 291 288 290 288 287 287 286 287 292 289 285 282 278 278 276 278 279 282 285 285 282 277 273
323 320 317 316 317 317 314 314 316 313 307 304 304 303 302 299 298 296 291 283 284 287 288 284 289 291 292 294 292 283 276 274 271 268 271 273 275 277 278 284 280 281 287
Height
1506 1508 1511 1514 1515 1516 1517 1518 1518 1518 1519 1519 1519 1518 1516 1515 1513 1510 1508 1506 1505 1503 1501 1499 1498 1496 1494 1492 1489 1487 1484 1481 1479 1476 1476 1475 1474 1474 1474 1474 1475 1474 1473
1499 1503 1506 1510 1512 1514 1515 1515 1516 1516 1516 1516 1515 1515 1514 1512 1510 1508 1505 1503 1501 1500 1498 1497 1496 1494 1493 1491 1488 1486 1483 1481 1479 1477 1476 1475 1476 1474 1473 1474 1475 1475 1474
1494 1497 1501 1505 1509 1511 1512 1513 1514 1514 1515 1514 1513 1513 1511 1510 1508 1506 1504 1501 1499 1498 1496 1495 1494 1492 1491 1489 1487 1485 1483 1481 1480 1478 1478 1476 1475 1473 1473 1473 1474 1475 1475
1490 1495 1497 1501 1505 1509 1510 1511 1512 1512 1513 1512 1512 1511 1509 1508 1506 1503 1501 1499 1497 1496 1494 1493 1492 1491 1489 1488 1486 1484 1482 1481 1479 1479 1478 1477 1477 1475 1473 1472 1472 1473 1473
1488 1491 1495 1499 1504 1506 1508 1509 1510 1510 1510 1510 1509 1510 1507 1506 1504 1502 1499 1497 1495 1493 1492 1491 1491 1489 1488 1487 1485 1483 1482 1480 1479 1478 1477 1476 1475 1476 1475 1472 1470 1470 1470
1487 1490 1495 1499 1502 1503 1505 1506 1507 1507 1507 1507 1507 1507 1505 1504 1502 1500 1498 1495 1493 1492 1490 1489 1489 1488 1487 1486 1485 1483 1481 1480 1479 1477 1476 1476 1475 1474 1474 1472 1469 1468 1467
1485 1488 1491 1495 1498 1500 1502 1503 1504 1505 1505 1505 1505 1504 1503 1502 1500 1498 1496 1494 1492 1490 1488 1487 1486 1486 1485 1484 1483 1482 1481 1479 1478 1477 1476 1475 1474 1473 1473 1472 1470 1468 1465
1487 1489 1492 1494 1497 1499 1500 1501 1502 1503 1502 1503 1502 1501 1501 1500 1499 1497 1494 1492 1490 1489 1487 1486 1485 1484 1483 1482 1481 1480 1479 1477 1476 1475 1474 1473 1472 1472 1471 1470 1470 1468 1465
1488 1490 1492 1494 1495 1496 1498 1498 1499 1500 1499 1499 1498 1498 1498 1497 1496 1494 1492 1490 1488 1487 1485 1484 1483 1482 1481 1480 1479 1478 1477 1475 1474 1474 1472 1472 1471 1470 1469 1468 1468 1468 1467
1487 1488 1489 1490 1491 1492 1493 1493 1493 1493 1494 1493 1494 1494 1494 1494 1493 1491 1490 1488 1486 1484 1483 1481 1480 1479 1478 1478 1476 1475 1474 1473 1473 1472 1471 1469 1469 1467 1466 1466 1466 1465 1465
1485 1485 1485 1486 1486 1487 1488 1490 1490 1490 1490 1490 1491 1490 1491 1490 1489 1488 1487 1485 1483 1481 1479 1478 1477 1476 1475 1474 1473 1472 1471 1470 1469 1468 1467 1466 1465 1464 1464 1462 1462 1462 1462
1483 1481 1480 1480 1480 1481 1483 1483 1484 1485 1485 1486 1486 1486 1486 1485 1485 1484 1483 1482 1480 1478 1476 1475 1474 1473 1471 1470 1469 1468 1467 1467 1466 1465 1464 1463 1462 1461 1460 1459 1459 1459 1458
1479 1477 1476 1476 1477 1478 1478 1478 1479 1479 1480 1481 1481 1481 1481 1481 1481 1480 1479 1478 1476 1474 1473 1471 1470 1469 1468 1466 1465 1464 1463 1462 1461 1461 1461 1460 1458 1457 1457 1456 1455 1454 1454
1478 1475 1474 1473 1472 1472 1471 1472 1472 1473 1475 1476 1476 1476 1476 1476 1476 1475 1474 1473 1471 1469 1468 1467 1466 1465 1464 1463 1462 1460 1459 1458 1458 1457 1456 1456 1455 1454 1453 1452 1451 1451 1450
1477 1475 1473 1471 1468 1465 1464 1465 1467 1468 1469 1470 1470 1470 1471 1471 1471 1470 1469 1468 1466 1465 1464 1462 1461 1460 1460 1459 1458 1456 1455 1454 1454 1453 1452 1451 1451 1450 1449 1448 1447 1446 1445
1478 1476 1473 1470 1467 1464 1461 1461 1462 1462 1463 1464 1464 1466 1467 1467 1467 1465 1463 1462 1460 1459 1458 1456 1455 1454 1453 1452 1452 1451 1450 1449 1448 1448 1447 1446 1445 1444 1444 1443 1443 1442 1441
1478 1475 1472 1469 1467 1465 1463 1461 1460 1458 1457 1457 1458 1460 1461 1461 1460 1458 1456 1455 1454 1453 1453 1452 1450 1449 1448 1447 1446 1445 1444 1443 1443 1442 1441 1441 1441 1440 1438 1438 1438 1438 1437
1478 1475 1472 1468 1465 1462 1460 1459 1457 1456 1455 1455 1455 1455 1454 1453 1452 1451 1450 1449 1448 1446 1445 1444 1443 1441 1441 1441 1440 1439 1437 1436 1436 1435 1434 1434 1433 1433 1433 1432 1431 1433 1433
1478 1475 1472 1467 1464 1461 1458 1456 1456 1454 1453 1451 1450 1449 1446 1445 1445 1444 1443 1443 1442 1440 1437 1436 1436 1434 1434 1434 1432 1431 1431 1430 1430 1430 1429 1428 1428 1428 1427 1426 1426 1425 1426
1475 1472 1469 1465 1462 1460 1457 1454 1452 1450 1449 1446 1444 1442 1441 1438 1438 1437 1435 1433 1432 1434 1433 1429 1428 1426 1426 1427 1426 1424 1423 1423 1423 1423 1423 1422 1421 1421 1421 1419 1418 1417 1418
1471 1469 1466 1463 1461 1459 1457 1454 1451 1447 1445 1444 1441 1437 1435 1433 1431 1428 1427 1426 1426 1424 1426 1424 1424 1421 1421 1420 1419 1417 1415 1414 1413 1413 1414 1415 1415 1415 1414 1413 1412 1410 1411
1470 1466 1464 1461 1459 1457 1454 1451 1448 1446 1443 1440 1437 1434 1431 1428 1427 1426 1423 1421 1419 1418 1418 1415 1414 1416 1415 1414 1412 1411 1409 1407 1405 1404 1405 1405 1406 1406 1405 1404 1405 1404 1403
1471 1466 1463 1461 1459 1455 1452 1449 1447 1443 1440 1437 1435 1431 1427 1426 1425 1424 1422 1420 1418 1415 1413 1411 1409 1408 1407 1405 1405 1403 1401 1399 1399 1397 1395 1395 1394 1395 1395 1395 1395 1395 1394
1468 1465 1462 1459 1456 1453 1450 1447 1444 1440 1436 1433 1430 1428 1425 1423 1421 1418 1416 1415 1413 1409 1407 1405 1402 1400 1397 1396 1396 1395 1395 1392 1390 1389 1388 1387 1386 1386 1385 1385 1385 1385 1385
1466 1463 1459 1456 1452 1449 1446 1443 1440 1436 1432 1428 1425 1421 1418 1416 1413 1412 1409 1407 1405 1402 1400 1398 1395 1392 1390 1388 1387 1386 1385 1384 1382 1381 1379 1377 1377 1377 1377 1376 1375 1374 1374
1462 1458 1455 1451 1448 1445 1441 1438 1435 1431 1427 1422 1419 1416 1412 1409 1406 1403 1399 1399 1396 1394 1392 1390 1388 1386 1384 1381 1380 1379 1376 1376 1375 1372 1370 1369 1368 1368 1368 1368 1367 1366 1365